[[{"header":{"parameterUnit":"m.s-1","parameterCategory":1,"la1":30.2991,"la2":30.254,"lo1":-89.0895,"lo2":-89.0444,"dy":0.0017,"dx":0.0017,"nx":28,"ny":28,"refTime":"2025-11-20T03:00:00:Z","depth":0,"parameterNumber":2,"parameterNumberName":"U-component_of_WINDS"},"data":[0,0,0,0,0,0,0,0,0,0,0,0,0,0,0,0,0,0,0,0,0,0,0,0,0,0,0,0,0,0,0,0,0,0,0,0,0,0,0,0,0,0,0,0,0,0,0,0,0,0,0,0,0,0,0,0,0,0,-2.9731,-2.9731,0,-2.9729,-2.9729,-2.9729,-2.9668,-2.9666,-2.9664,-2.9663,-2.966,-2.9662,-2.9663,0,0,0,0,0,0,0,0,0,0,0,0,0,-2.9682,-2.9683,-2.9731,-2.9731,-2.9731,-2.9729,-2.9729,-2.9729,-2.9668,-2.9666,-2.9664,-2.9662,-2.966,-2.9662,-2.9663,0,0,0,0,0,0,0,0,0,0,0,0,0,-2.9694,-2.9684,-2.9731,-2.97,-2.9698,-2.9729,-2.9729,-2.9729,-2.9668,-2.9666,-2.9663,-2.9661,-2.9659,-2.9661,-2.9664,-2.9724,0,0,-2.967,-2.9671,0,0,0,0,0,0,0,0,-2.9694,-2.9696,-2.9705,-2.9703,-2.9699,-2.9696,-2.9711,-2.9728,-2.9669,-2.9679,-2.9663,-2.966,-2.9674,-2.9675,-2.968,-2.9724,-2.9724,-2.967,-2.9672,-2.9672,-2.9673,0,0,0,0,0,0,0,-2.9693,-2.9696,-2.973,-2.9705,-2.9702,-2.9687,-2.9686,-2.9714,-2.969,-2.9678,-2.9674,-2.9674,-2.9672,-2.9678,-2.9679,-2.9724,-2.967,-2.9672,-2.9673,-2.9674,-2.9819,-2.9821,0,0,0,0,0,0,-2.9696,-2.9696,-2.973,-2.973,-2.9691,-2.9689,-2.9688,-2.97,-2.969,-2.9686,-2.9676,-2.9672,-2.9675,-2.9677,-2.9679,-2.9749,-2.9672,-2.9674,-2.9676,-2.9816,-2.9819,-2.9822,0,0,0,0,0,0,-2.9695,-2.97,-2.973,-2.9712,-2.9714,-2.9693,-2.9706,-2.9701,-2.9706,-2.9688,-2.9684,-2.9686,-2.9674,-2.9676,-2.9714,-2.9748,-2.9675,-2.9677,-2.9813,-2.9817,-2.982,-2.989,0,0,0,0,0,0,-2.9694,-2.97,-2.9723,-2.9713,-2.9716,-2.9765,-2.9708,-2.9703,-2.971,-2.9704,-2.9697,-2.9693,-2.9672,-2.9711,-2.9716,-2.975,-2.9679,-2.981,-2.9815,-2.9819,-2.9885,-2.9896,-2.9905,0,0,0,0,0,-2.9693,-2.9742,-2.9724,-2.9729,-2.9744,-2.9767,-2.9769,-2.9744,-2.9713,-2.9736,-2.9725,-2.9693,-2.9744,-2.9715,-2.972,-2.9755,-2.9807,-2.9813,-2.9819,-2.988,-2.9894,-2.9905,0,0,0,0,0,0,-2.9757,-2.974,-2.972,-2.9768,-2.977,-2.9757,-2.9784,-2.9759,-2.9769,-2.9763,-2.9731,-2.973,-2.9772,-2.9768,-2.9736,-2.9814,-2.977,-2.9777,-2.9815,-2.9828,-2.9838,-2.9838,-2.9681,0,0,0,0,0,-2.9777,-2.9797,-2.9782,-2.9826,-2.9828,-2.9806,-2.9816,-2.9796,-2.9796,-2.9797,-2.9788,-2.9789,-2.9805,-2.9817,-2.983,-2.9884,-2.9882,-2.9911,-2.9922,-2.993,-2.9936,-2.9964,-2.9977,-2.9841,-2.9841,-2.9841,0,0,-2.9817,-2.9811,-2.9826,-2.9838,-2.9837,-2.9859,-2.9807,-2.9832,-2.9848,-2.98,-2.9835,-2.9829,-2.9829,-2.9875,-2.9894,-2.9872,-2.9973,-2.9938,-2.9945,-2.9946,-2.9971,-2.9984,-2.9996,-2.9845,-2.9844,-2.9843,0,0,-2.9902,-2.99,-2.9936,-2.9936,-2.9936,-2.9921,-2.993,-2.9922,-2.9916,-2.995,-2.9915,-2.9934,-2.9962,-2.9963,-2.9967,-3.0055,-3.0026,-3.006,-3.0114,-3.0142,-3.0152,-3.0162,-3.0192,-3.0203,-3.0067,-3.0067,-3.0067,0,-2.9953,-2.9985,-2.9958,-2.9986,-2.9992,-2.9951,-2.9987,-2.9988,-2.9992,-2.9997,-2.9973,-3.0008,-3.0005,-3.005,-3.0071,-3.0077,-3.0085,-3.006,-3.0153,-3.0162,-3.017,-3.0199,-3.021,-3.0071,-3.007,-3.007,-3.007,0,-3.0047,-3.0069,-3.0099,-3.0103,-3.0113,-3.0145,-3.0123,-3.0137,-3.0117,-3.0106,-3.0141,-3.0136,-3.0148,-3.0158,-3.0139,-3.0201,-3.0187,-3.0159,-3.0114,-3.0188,-3.0214,-3.0225,-3.0077,-3.0075,-3.0074,-3.0073,0,0,-3.017,-3.0161,-3.0172,-3.0174,-3.017,-3.0187,-3.0218,-3.023,-3.0242,-3.0246,-3.027,-3.0296,-3.027,-3.0275,-3.0256,-3.028,-3.0349,-3.0248,-3.0248,-3.0266,-3.0416,-3.0437,-3.045,-3.0331,-3.0333,-3.0334,-3.0416,0,-3.0252,-3.0303,-3.028,-3.0333,-3.0354,-3.0315,-3.0342,-3.0343,-3.0333,-3.0349,-3.0339,-3.0357,-3.0321,-3.0324,-3.0346,-3.0336,-3.0378,-3.033,-3.0352,-3.0353,-3.0352,-3.0464,-3.0485,-3.0562,-3.0426,-3.0428,-3.0429,0,-3.0353,-3.0362,-3.0418,-3.0411,-3.0419,-3.0443,-3.0452,-3.0468,-3.0469,-3.046,-3.0466,-3.0442,-3.0471,-3.0428,-3.0468,-3.0436,-3.0444,-3.044,-3.0443,-3.0442,-3.0394,-3.0465,-3.0587,-3.0598,-3.0445,-3.0444,-3.0443,0,-3.0437,-3.0463,-3.0499,-3.0502,-3.0495,-3.0513,-3.0511,-3.0509,-3.0518,-3.0527,-3.0532,-3.0544,-3.0551,-3.0561,-3.054,-3.0511,-3.0583,-3.0538,-3.0576,-3.0576,-3.0591,-3.059,-3.0714,-3.0599,-3.0599,-3.0599,-3.0599,0,-3.0529,-3.0564,-3.0536,-3.0559,-3.0597,-3.0571,-3.061,-3.0604,-3.0603,-3.0623,-3.0591,-3.0611,-3.0584,-3.0601,-3.0585,-3.062,-3.0624,-3.0617,-3.0612,-3.0619,-3.062,-3.0623,-3.0616,-3.0602,-3.0601,-3.0601,-3.06,0,-3.0628,-3.0611,-3.0648,-3.0639,-3.0637,-3.0666,-3.0658,-3.0679,-3.0667,-3.0694,-3.0698,-3.0681,-3.07,-3.0681,-3.0698,-3.0688,-3.0735,-3.0723,-3.0734,-3.073,-3.0769,-3.0765,-3.0897,-3.0913,-3.079,-3.0791,-3.0792,0,-3.0687,-3.0713,-3.0707,-3.0719,-3.0719,-3.0738,-3.0747,-3.0723,-3.0734,-3.0737,-3.0757,-3.0773,-3.0784,-3.0816,-3.0805,-3.0818,-3.0805,-3.0851,-3.0807,-3.0813,-3.0805,-3.0803,-3.0805,-3.086,-3.0861,-3.0862,-3.0863,0,-3.0794,-3.0784,-3.0799,-3.081,-3.0822,-3.083,-3.0836,-3.0847,-3.0822,-3.0836,-3.0855,-3.0864,-3.0882,-3.0898,-3.0908,-3.0906,-3.0881,-3.0878,-3.0887,-3.0893,-3.0898,-3.0895,-3.0757,-3.0874,-3.0873,-3.0872,-3.0872,-3.0871,-3.0874,-3.0895,-3.0895,-3.0912,-3.0913,-3.092,-3.0938,-3.093,-3.0945,-3.0958,-3.0943,-3.0966,-3.0966,-3.0977,-3.0979,-3.0996,-3.0977,-3.0991,-3.0994,-3.0997,-3.1002,-3.0897,-3.0998,-3.0998,-3.0998,-3.0997,-3.0997,0,-3.0978,-3.0976,-3.0992,-3.1001,-3.1014,-3.099,-3.0995,-3.1008,-3.1029,-3.1031,-3.1043,-3.1065,-3.1081,-3.1072,-3.1085,-3.1101,-3.109,-3.1106,-3.1103,-3.1103,-3.1019,-3.1009,-3.1115,-3.1115,-3.1115,-3.1115,-3.1115,-3.1115,-3.1034,-3.1068,-3.1059,-3.1094,-3.1092,-3.1114,-3.1119,-3.1125,-3.1127,-3.1153,-3.1166,-3.116,-3.1158,-3.1171,-3.1184,-3.1181,-3.1187,-3.1207,-3.12,-3.1121,-3.1109,-3.1098,-3.1089,-3.1209,-3.1209,-3.1282,-3.1283,-3.1283]},{"header":{"parameterUnit":"m.s-1","parameterCategory":1,"la1":30.2991,"la2":30.254,"lo1":-89.0895,"lo2":-89.0444,"dy":0.0017,"dx":0.0017,"nx":28,"ny":28,"refTime":"2025-11-20T03:00:00:Z","depth":0,"parameterNumber":3,"parameterNumberName":"V-component_of_WINDS"},"data":[0,0,0,0,0,0,0,0,0,0,0,0,0,0,0,0,0,0,0,0,0,0,0,0,0,0,0,0,0,0,0,0,0,0,0,0,0,0,0,0,0,0,0,0,0,0,0,0,0,0,0,0,0,0,0,0,0,0,0.239,0.2391,0,0.2422,0.2422,0.2422,0.2443,0.2443,0.2443,0.2443,0.2474,0.2475,0.2475,0,0,0,0,0,0,0,0,0,0,0,0,0,0.2349,0.2349,0.239,0.2391,0.2391,0.2421,0.2422,0.2422,0.2443,0.2443,0.2443,0.2443,0.2474,0.2474,0.2475,0,0,0,0,0,0,0,0,0,0,0,0,0,0.2372,0.2349,0.239,0.2405,0.2407,0.2421,0.2422,0.2422,0.2443,0.2443,0.2443,0.2443,0.2473,0.2474,0.2475,0.2478,0,0,0.2479,0.2479,0,0,0,0,0,0,0,0,0.2371,0.2373,0.2402,0.2404,0.2406,0.2429,0.2419,0.2441,0.2443,0.2429,0.2443,0.2444,0.2459,0.2461,0.2466,0.2479,0.248,0.2479,0.2479,0.248,0.248,0,0,0,0,0,0,0,0.2369,0.2372,0.2403,0.2403,0.2405,0.241,0.2414,0.2423,0.2442,0.243,0.2432,0.2435,0.246,0.2465,0.2467,0.2481,0.2479,0.248,0.248,0.2481,0.25,0.2499,0,0,0,0,0,0,0.2365,0.2371,0.2402,0.2404,0.2388,0.2411,0.2415,0.2421,0.2442,0.2446,0.2435,0.2436,0.2463,0.2466,0.2468,0.2474,0.248,0.2481,0.2481,0.25,0.25,0.2499,0,0,0,0,0,0,0.2364,0.2368,0.24,0.2388,0.2392,0.2411,0.2418,0.2422,0.2427,0.2446,0.2449,0.2437,0.2464,0.2467,0.2476,0.2475,0.2481,0.2482,0.25,0.25,0.2499,0.2484,0,0,0,0,0,0,0.2363,0.2367,0.2368,0.2387,0.2393,0.2407,0.2418,0.2422,0.2429,0.2431,0.2449,0.2452,0.2464,0.2474,0.2477,0.2477,0.2483,0.25,0.25,0.25,0.2484,0.2483,0.2482,0,0,0,0,0,0.2361,0.2361,0.2368,0.2371,0.2394,0.2407,0.241,0.2424,0.2429,0.243,0.2443,0.2451,0.2475,0.2475,0.2478,0.2478,0.25,0.25,0.25,0.2485,0.2483,0.2482,0,0,0,0,0,0,0.234,0.2364,0.2371,0.2378,0.239,0.241,0.2412,0.2422,0.2433,0.2434,0.245,0.2454,0.2462,0.2471,0.2471,0.2483,0.2489,0.2489,0.2476,0.2475,0.2474,0.2472,0.2484,0,0,0,0,0,0.2336,0.2345,0.2365,0.2369,0.2375,0.2393,0.2399,0.2409,0.2422,0.2427,0.244,0.2453,0.2463,0.247,0.248,0.2486,0.2491,0.2488,0.2487,0.2485,0.2486,0.2492,0.2491,0.2499,0.2499,0.2499,0,0,0.2328,0.2342,0.2346,0.2365,0.2376,0.2385,0.2397,0.2405,0.2412,0.2428,0.2438,0.2448,0.2464,0.2472,0.2476,0.2479,0.2485,0.2485,0.2484,0.2485,0.2491,0.249,0.249,0.2498,0.2498,0.2499,0,0,0.2318,0.2329,0.2334,0.2346,0.2363,0.2375,0.2376,0.2395,0.2403,0.2414,0.2427,0.2435,0.2452,0.2463,0.2471,0.2468,0.2477,0.2471,0.2465,0.247,0.247,0.2469,0.2469,0.2469,0.2471,0.2471,0.2471,0,0.2305,0.232,0.2336,0.2344,0.2353,0.2369,0.2376,0.2386,0.2405,0.241,0.2414,0.2438,0.2449,0.2461,0.246,0.2466,0.2469,0.2469,0.2468,0.2468,0.2468,0.2468,0.2468,0.247,0.2471,0.2471,0.2471,0,0.2304,0.2314,0.2316,0.2336,0.2345,0.2352,0.237,0.2377,0.2387,0.2399,0.241,0.2425,0.2439,0.2443,0.2452,0.2457,0.2459,0.2465,0.2472,0.2466,0.2467,0.2467,0.2469,0.247,0.247,0.247,0,0,0.228,0.2311,0.2311,0.2321,0.2342,0.235,0.2359,0.2374,0.2381,0.2394,0.2402,0.2418,0.2425,0.2434,0.2444,0.2449,0.2448,0.2455,0.2456,0.2454,0.2456,0.2451,0.2451,0.2454,0.2454,0.2454,0.2455,0,0.2274,0.2291,0.2307,0.2318,0.2328,0.2345,0.2353,0.2367,0.2379,0.239,0.2403,0.2414,0.2422,0.2428,0.2433,0.2447,0.2449,0.2447,0.2463,0.2463,0.2459,0.2452,0.2446,0.2446,0.2455,0.2456,0.2456,0,0.2269,0.2283,0.2295,0.2318,0.2323,0.2329,0.2346,0.2356,0.2373,0.2381,0.2392,0.2404,0.2415,0.2421,0.2437,0.2435,0.2443,0.2451,0.2451,0.2453,0.2459,0.2454,0.2446,0.2446,0.2456,0.2456,0.2456,0,0.2252,0.2274,0.2285,0.2293,0.2318,0.2323,0.2334,0.2351,0.236,0.2375,0.2381,0.2396,0.2405,0.2416,0.2433,0.2435,0.2447,0.2454,0.2455,0.2455,0.2457,0.2457,0.2451,0.2461,0.2461,0.2461,0.2461,0,0.2244,0.2251,0.2278,0.2284,0.2294,0.2312,0.2321,0.2334,0.2349,0.2359,0.2375,0.2383,0.2404,0.2416,0.2429,0.2441,0.2444,0.2452,0.2455,0.2451,0.245,0.2456,0.2457,0.2461,0.2461,0.2461,0.2461,0,0.2226,0.2244,0.2257,0.2282,0.2288,0.2294,0.2315,0.2322,0.2336,0.2348,0.2352,0.2374,0.2389,0.2406,0.2426,0.2435,0.2446,0.2451,0.2441,0.2443,0.2444,0.2444,0.2442,0.2443,0.2452,0.2452,0.2451,0,0.222,0.2226,0.2252,0.226,0.2271,0.2283,0.2293,0.2313,0.2322,0.2344,0.2349,0.2365,0.2379,0.2402,0.242,0.2436,0.2441,0.244,0.2444,0.244,0.2443,0.2442,0.2444,0.2438,0.2438,0.2438,0.2438,0,0.2207,0.2217,0.223,0.2248,0.226,0.2274,0.2289,0.2295,0.2318,0.2328,0.2344,0.2355,0.2377,0.2393,0.2412,0.2424,0.2435,0.2437,0.2438,0.2434,0.2428,0.2432,0.2439,0.2436,0.2437,0.2437,0.2437,0.2437,0.2196,0.2203,0.2223,0.2239,0.2252,0.2267,0.2276,0.2292,0.2305,0.2325,0.2336,0.2352,0.2371,0.2397,0.2409,0.2422,0.2426,0.2427,0.2428,0.2428,0.2427,0.2426,0.2425,0.2425,0.2425,0.2425,0.2425,0,0.2185,0.22,0.2214,0.2235,0.2248,0.2259,0.2277,0.2286,0.2301,0.2317,0.2332,0.2351,0.2368,0.2387,0.2405,0.2412,0.2418,0.2416,0.2416,0.2419,0.2422,0.242,0.2411,0.2411,0.2411,0.2411,0.2411,0.2411,0.2181,0.2195,0.2207,0.2228,0.2242,0.2259,0.2268,0.2282,0.2296,0.2317,0.2332,0.2344,0.2363,0.2383,0.2399,0.2404,0.241,0.2407,0.2414,0.2417,0.2418,0.242,0.2417,0.2408,0.2408,0.241,0.241,0.241]}]]